Flag for U.S.A. Weather past 2 weeks in Mesquite, Texas, U.S.A.

Now
93 °F

Sunny.


Feels Like: 96 °F
Forecast: 73 / 95 °F
Wind: 9 mph from South

Location: Mesquite Metro Airport

Current Time: Jul 25, 2014 at 1:52:21 PM

Latest Report: Jul 25, 2014 at 12:53 PM


Visibility: 10 mi

Pressure: 30.00 "Hg

Humidity: 41%

Dew point: 66 °F

Location of MesquiteLocation

Historic Weather in Mesquite — Graph

°F

Mesquite temperature yesterday

Maximum temperature yesterday: 91 °F (at 2:50 PM)
Minimum temperature yesterday: 68 °F (at 6:58 AM)
Average temperature yesterday: 78 °F

Past Weeks' High & Low Weather Summary

 TemperatureHumidityPressure
High99 °F (Jul 13, 2:55 PM)100% (Jul 12, 5:47 AM)30.23 "Hg (Jul 12, 5:47 AM)
Low63 °F (Jul 20, 6:50 AM)24% (Jul 15, 4:50 PM)29.88 "Hg (Jul 16, 7:50 PM)
Average77 °F74%30.02 "Hg
* Reported Jul 10 11:50 AM — Jul 25 11:53 AM, Mesquite, Weather by CustomWeather, © 2014

Note: Actual official high and low records may vary slightly from our data, if they occured in-between our weather recording intervals... More about our weather records

Advertising

Mesquite weather history for previous 24 hours

 ConditionsComfort  
Time TempWeatherWind HumidityBarometerVisibility
11:53 AM
Jul 25
90 °FSunny.5 mph52%30.02 "Hg10 mi
10:52 AM88 °FSunny.10 mph55%30.03 "Hg10 mi
9:50 AM82 °FSunny.6 mph70%30.03 "Hg10 mi
8:55 AM79 °FSunny.5 mph84%30.04 "Hg7 mi
7:50 AM73 °FSunny.5 mph94%30.01 "Hg4 mi
6:55 AM70 °FFog.No wind100%30.02 "Hg3 mi
5:35 AM71 °FClear.3 mph96%30.02 "Hg5 mi
5:15 AM71 °FClear.5 mph95%30.01 "Hg5 mi
4:55 AM72 °FClear.3 mph95%30.02 "Hg5 mi
4:35 AM72 °FClear.3 mph95%30.01 "Hg7 mi
4:15 AM72 °FClear.3 mph95%30.01 "Hg7 mi
3:55 AM72 °FClear.5 mph94%30.01 "Hg7 mi
3:35 AM72 °FClear.5 mph93%30.01 "Hg7 mi
3:15 AM73 °FClear.5 mph92%30.01 "Hg7 mi
2:55 AM73 °FClear.No wind93%30.02 "Hg10 mi
2:35 AM73 °FClear.3 mph93%30.02 "Hg10 mi
2:15 AM73 °FClear.3 mph91%30.02 "Hg10 mi
1:55 AM74 °FClear.3 mph91%30.02 "Hg10 mi
1:35 AM74 °FClear.3 mph90%30.02 "Hg10 mi
1:15 AM74 °FClear.5 mph89%30.01 "Hg10 mi
12:55 AM74 °FClear.3 mph89%30.01 "Hg10 mi
12:35 AM75 °FClear.5 mph87%30.01 "Hg10 mi
12:15 AM75 °FClear.5 mph85%30.01 "Hg10 mi
11:55 PM
Jul 24
76 °FClear.5 mph82%30.01 "Hg10 mi
11:35 PM76 °FClear.3 mph81%30.00 "Hg10 mi
11:15 PM77 °FClear.No wind79%30.00 "Hg10 mi
10:55 PM78 °FClear.5 mph76%30.00 "Hg10 mi
10:35 PM78 °FClear.5 mph76%29.99 "Hg10 mi
10:15 PM78 °FClear.5 mph74%29.99 "Hg10 mi
9:55 PM80 °FClear.5 mph70%29.99 "Hg10 mi
7:50 PM88 °FSunny.6 mph49%29.96 "Hg10 mi
5:50 PM91 °FSunny.7 mph41%29.96 "Hg10 mi
4:55 PM91 °FSunny.6 mph41%29.98 "Hg10 mi
3:55 PM91 °FSunny.8 mph38%30.00 "Hg10 mi
2:50 PM91 °FSunny.6 mph36%30.01 "Hg10 mi
1:55 PM90 °FSunny.9 mph41%30.02 "Hg10 mi
Weather by CustomWeather, © 2014

See weather overviewHow to use our weather pages